Location: Cahas Mountain Overlook
(37.0833°N, 80.1000°W)
Time: 19:19:57
(UTC-05:00)

Vanguard 3 - Pass Details

Date: 10 December 2023
Orbit: 508 x 3239 km, 33.4° (Epoch: 23 February)

Event Time Altitude Azimuth Distance (km) Brightness Sun altitude
Rises 18:02:11 0° 215° (SW) 7,162 13.0 -11.5°
Reaches altitude 10° 18:07:38 10° 208° (SSW) 6,161 12.3 -12.5°
Maximum altitude 18:24:16 38° 150° (SSE) 3,811 10.4 -15.7°
Enters shadow 18:34:10 18° 97° (E) 4,257 10.2 -17.6°
